Regional Weather Roundup
Issued by NWS Goodland, KS

Home | Current Version | Previous Version | Graphics & Text | Print | Product List | Glossary On
Versions: 1 2 3 4 5 6 7 8 9 10 11 12 13 14 15 16 17 18 19 20 21 22 23 24 25 26 27 28 29 30 31 32 33 34 35 36 37 38 39 40 41 42 43 44 45 46 47 48 49 50
000
ASUS43 KGLD 231059
RWRGLD

GOODLAND FORECAST AREA HOURLY WEATHER ROUNDUP
NATIONAL WEATHER SERVICE GOODLAND KS
500 AM MDT TUE MAY 23 2017

...OFFICIAL OBSERVATIONS...

CITY           SKY/WX    TMP DP  RH WIND       PRES   REMARKS
GOODLAND KS    CLEAR     40  38  93 NW13      30.12S
HILL CITY KS   PTCLDY    45  43  93 NW7       30.06F
IMPERIAL NEB   CLOUDY    43  38  82 NW10      30.10F
MCCOOK NEB     CLEAR     42  40  92 NW14      30.06F
AKRON CO       CLEAR     35  32  88 W10       30.17S
BURLINGTON CO  CLEAR     39  37  92 NW9       30.14F
LIMON CO       CLEAR     38  35  89 N14       30.18F
$$

...UNOFFICIAL OBSERVATIONS...

CITY           SKY/WX    TMP DP  RH WIND       PRES   REMARKS
LENORA KS        N/A     43  32  65 MISG        N/A
NORTON KS      CLEAR     43  37  81 W13       30.04F
SHARON SPRINGS   N/A     40  38  92 NW9         N/A
TRENTON NEB      N/A     40  32  73 NW6         N/A
KIT CARSON CO    N/A     40  35  84 CALM        N/A
YUMA CO        FAIR      36  34  93 W10       30.15F
$$




USA.gov is the U.S. government's official web portal to all federal, state and local government web resources and services.